x

Half Moon Bay - 24nm Ssw Of San Francisco, Ca (46012) Wave Buoy

9:50am - Sat 26th Jul 2014 All times are PDT. -7 hours from GMT.

  • Sig Wave height 5.9ft
  • Swell Direction
  • Peak Period 9s
  • Average Period 6s
  • Wind
    9mph, 13mph gusts
  • Sea Temp 62°f
  • Air Temp 58°f
  • Sea Pressure 1014.6mb
  • Half Moon Bay - 24nm Ssw Of San Francisco, Ca
  • Half Moon Bay - 24nm Ssw Of San Francisco, Ca

More Historic Weather Station data

Upgrade to MSW Pro to gain access to the past 30 days of data for over 8000 Wavebouys and Weather Stations around the globe.

Join Pro

Comparision Forecast

View Surf forecast
   
Sat 07/26 9:50am 6ft 9s 6s 9 13 mph 1014.6mb 62f 58f
8:50am 6ft 8s 6s 9 11 mph 1014.5mb 61f 59f
7:50am 6.5ft 8s 7s 9 11 mph 1013.9mb 61f 59f
6:50am 6.5ft 9s 6s 11 13 mph 1013.4mb 61f 59f
5:50am 6.5ft 9s 6s 11 13 mph 1012.8mb 61f 60f
4:50am 7ft 9s 7s 7
mph
1012.7mb 61f 60f
3:50am 7ft 8s 7s 4 7 mph 1012.8mb 61f 60f
2:50am 6ft 9s 6s 7 9 mph 1012.6mb 62f 60f
1:50am 7.5ft 9s 7s 7 9 mph 1012.8mb 62f 60f
12:50am 7.5ft 9s 7s 7 9 mph 1012.6mb 62f 60f
Fri 07/25 11:50pm 7ft 8s 7s 9 11 mph 1012.4mb 62f 61f
10:50pm 7ft 9s 7s 11 16 mph 1012.2mb 62f 61f
9:50pm 6.5ft 9s 7s 9 11 mph 1012.7mb 62f 61f
8:50pm 6ft 9s 6s 16 18 mph 1011.6mb 62f 61f
7:50pm 6ft 10s 6s 16 18 mph 1011.8mb 62f 61f
6:50pm 6.5ft 9s 7s 20 22 mph 1011.3mb 62f 61f
5:50pm 6ft 10s 6s 16 20 mph 1011.8mb 62f 60f
4:50pm 6.5ft 10s 7s 16 20 mph 1012mb 62f 60f
3:50pm 6.5ft 10s 6s 16 18 mph 1012.1mb 62f 60f
2:50pm 7.5ft 9s 7s 16 18 mph 1012.5mb 62f 60f
1:50pm 8ft 8s 7s 13 16 mph 1012.5mb 62f 60f
12:50pm 8ft 10s 7s 16 18 mph 1012.1mb 62f 60f
11:50am 8ft 10s 7s 11 13 mph 1012.4mb 62f 60f
10:50am 8ft 9s 7s 9 13 mph 1012.3mb 62f 60f
9:50am 7.5ft 9s 7s 11 13 mph 1012.2mb 61f 60f
8:50am 7.5ft 10s 7s 11 16 mph 1012mb 61f 60f
7:50am 8ft 9s 7s 13 16 mph 1011.7mb 61f 59f
6:50am 7ft 9s 7s 13 16 mph 1011.4mb 61f 59f
5:50am 7ft 9s 7s 16 18 mph 1010.9mb 61f 59f
4:50am 6ft 9s 6s 16 20 mph 1010.8mb 61f 60f
3:50am 7ft 9s 7s 16 18 mph 1010.9mb 61f 60f
2:50am 7ft 9s 7s 11 13 mph 1011.3mb 61f 60f
1:50am 7.5ft 9s 7s 11 13 mph 1011.6mb 61f 60f
12:50am 8ft 8s 7s 11 13 mph 1011.7mb 61f 60f
Thu 07/24 11:50pm 8ft 9s 7s 13 16 mph 1011.7mb 61f 60f
10:50pm 8ft 9s 7s 13 18 mph 1011.9mb 62f 60f
9:50pm 7.5ft 8s 6s 16 18 mph 1011.9mb 62f 60f
8:50pm 7.5ft 9s 6s 20 25 mph 1011.4mb 62f 61f
7:50pm 7.5ft 8s 6s 22 27 mph 1011.3mb 62f 61f
6:50pm 7ft 8s 6s 22 29 mph 1011.5mb 62f 61f
5:50pm 7ft 9s 6s 22 27 mph 1011.9mb 62f 61f
4:50pm 7.5ft 8s 6s 20 25 mph 1012.6mb 62f 61f
3:50pm 9ft 9s 6s 22 27 mph 1012.8mb 62f 61f
2:50pm 8ft 8s 6s 22 27 mph 1013.8mb 62f 61f
1:50pm 8ft 9s 6s 20 25 mph 1014.5mb 62f 60f
12:50pm 7.5ft 8s 6s 20 25 mph 1015.1mb 62f 60f
11:50am 7.5ft 8s 6s 20 22 mph 1015.7mb 62f 60f
10:50am 7ft 8s 6s 18 22 mph 1016.1mb 62f 60f
9:50am 6ft 8s 6s 18 22 mph 1016.4mb 62f 60f
8:50am 6ft 8s 6s 18 22 mph 1017mb 62f 61f
7:50am 5ft 7s 6s 16 18 mph 1016.9mb 61f 61f
6:50am 5ft 7s 5s 16 18 mph 1016.6mb 61f 61f
5:50am 5ft 7s 5s 13 18 mph 1016.7mb 61f 61f
4:50am 6ft 6s 5s 16 20 mph 1016.7mb 61f 61f
3:50am 6ft 7s 5s 20 25 mph 1016.9mb 61f 61f
2:50am 5.5ft 7s 5s 20 25 mph 1017.4mb 61f 61f
1:50am 6.5ft 6s 5s 25 27 mph 1017.3mb 61f 60f
12:50am 6ft 6s 5s 22 25 mph 1017.5mb 61f 61f
Wed 07/23 11:50pm 5ft 6s 5s 20 27 mph 1017.8mb 62f 62f
10:50pm 4ft 5s 5s 16 20 mph 1018.1mb 62f 62f
9:50pm 3.5ft 5s 5s 16
mph
1018.5mb 62f 62f
8:50pm 3.5ft 9s 5s 16 18 mph 1018.3mb 62f 63f
7:50pm 3.5ft 10s 5s 16 20 mph 1018.2mb 62f 62f
6:50pm 3ft 11s 5s 16 20 mph 1018.6mb 62f 62f
5:50pm 2.5ft 10s 5s 16 18 mph 1019.1mb 63f 62f
4:50pm 2.5ft 11s 6s 11 16 mph 1019.8mb 64f 63f
3:50pm 2.5ft 11s 7s 11 13 mph 1020.1mb 64f 63f
2:50pm 2.5ft 11s 8s 11 13 mph 1020.5mb 64f 63f
1:50pm 2.5ft 11s 7s 11 13 mph 1020.7mb 64f 63f
12:50pm 2.5ft 11s 8s 9 11 mph 1020.9mb 64f 63f
11:50am 2.5ft 9s 7s 7 9 mph 1021.1mb 63f 63f
10:50am 2.5ft 8s 7s 4 7 mph 1021mb 63f 63f
9:50am 3ft 8s 7s 4 7 mph 1020.9mb 63f 63f
8:50am 2.5ft 9s 7s 7
mph
1020.7mb 63f 63f
7:50am 2.5ft 9s 7s 7 9 mph 1020mb 63f 62f
6:50am 2.5ft 11s 8s 7 9 mph 1019.7mb 63f 62f
5:50am 2.5ft 9s 7s 7
mph
1019.3mb 63f 62f
4:50am 2.5ft 11s 7s 7 9 mph 1019mb 63f 63f
3:50am 3ft 10s 8s 4
mph
1019mb 63f 63f
2:50am 2.5ft 9s 7s 4
mph
1019.2mb 63f 63f
1:50am 3ft 9s 7s 2 4 mph 1019.4mb 63f 63f
12:50am 3ft 11s 7s 2 4 mph 1019.6mb 63f 63f
Tue 07/22 11:50pm 3.5ft 9s 7s 4
mph
1019.7mb 63f 63f
10:50pm 3.5ft 10s 7s 4
mph
1019.6mb 63f 63f
9:50pm 3ft 10s 7s 4
mph
1019.2mb 63f 63f
8:50pm 3.5ft 11s 7s 4 7 mph 1018.6mb 63f 64f
7:50pm 3ft 10s 7s 9
mph
1018.5mb 64f 64f
6:50pm 3.5ft 10s 7s 7
mph
1018.4mb 64f 64f
5:50pm 3.5ft 11s 7s 7 9 mph 1018.4mb 64f 64f